Simultaneous Nadir Overpasses (SNOs) Predictions

Prediction of SNOs between NOAA-19 and NPP Satellite Orbit:

Table of predicted SNOs for the next 14.0 days since TLE Epoch: 1/26/2017
Index Date (NOAA-19) Time (NOAA-19) Lat,Lon (NOAA-19) SZA (NOAA-19 ) Date (NPP) Time (NPP) Lat,Lon (NPP) SZA (NPP ) Distance(km) Time Diff (sec)
1 02/04/2017 05:25:59 80.90, 47.11 100.77 02/04/2017 05:27:10 80.89, 47.25 100.71 2.81 71
2 02/04/2017 06:17:01 -80.91,-145.44 79.27 02/04/2017 06:17:55 -80.90,-145.57 79.28 2.60 54
3 02/04/2017 07:08:01 80.90, 21.52 100.76 02/04/2017 07:08:41 80.91, 21.47 100.75 1.39 40
4 02/04/2017 07:59:03 -80.91,-171.04 79.28 02/04/2017 07:59:25 -80.90,-171.00 79.30 0.90 22
5 02/04/2017 08:50:02 80.91, -3.71 100.71 02/04/2017 08:50:10 80.90, -3.59 100.68 2.30 8
6 02/04/2017
